Home   Weather   West End of London   Past weeks
Flag for United Kingdom

Past Weather in West End of London, England, United Kingdom — Yesterday and Last 2 Weeks

Now
50 °F

Passing clouds.


Feels Like: 46 °F
Forecast: 59 / 50 °F
Wind: 9 mph from South

Location: Northolt

Current Time: Oct 18, 2019 at 5:05:23 am

Latest Report: Oct 18, 2019 at 3:50 am


Visibility: N/A

Pressure: 29.47 "Hg

Humidity: 94%

Dew Point: 48 °F

Location of West End of LondonLocation

Past Weather in West End of London — Graph

°F

West End of London Temperature Yesterday

Maximum temperature yesterday: 59 °F (at 2:21 pm)
Minimum temperature yesterday: 43 °F (at 5:50 am)
Average temperature yesterday: 52 °F

High & Low Weather Summary for the Past Weeks

 TemperatureHumidityPressure
High63 °F (Oct 6, 1:50 pm)100% (Oct 3, 3:50 am)30.15 "Hg (Oct 3, 3:50 am)
Low36 °F (Oct 3, 3:50 am)51% (Oct 9, 2:50 pm)29.50 "Hg (Oct 13, 9:50 am)
Average55 °F85%29.75 "Hg
* Reported Oct 3 2:50 am — Oct 18 2:50 am, West End of London. Weather by CustomWeather, © 2019

Note: Actual official high and low records may vary slightly from our data, if they occured in-between our weather recording intervals... More about our weather records

Advertising

West End of London Weather History for the Previous 24 Hours

Scroll right to see more
 ConditionsComfort  
Time TempWeatherWind HumidityBarometerVisibility
2:50 am
Fri, Oct 18
50 °FPartly cloudy.9 mph94%29.50 "HgN/A
1:50 am52 °FPassing clouds.13 mph88%29.53 "Hg2 mi
12:50 am52 °FPartly cloudy.5 mph94%29.56 "HgN/A
11:50 pm
Thu, Oct 17
52 °FPassing clouds.8 mph94%29.56 "HgN/A
10:50 pm52 °FPassing clouds.8 mph88%29.59 "HgN/A
9:50 pm52 °FPassing clouds.8 mph88%29.62 "HgN/A
8:50 pm52 °FClear.7 mph88%29.62 "Hg10 mi
7:50 pm54 °FPassing clouds.8 mph82%29.62 "HgN/A
6:50 pm54 °FPassing clouds.6 mph88%29.62 "HgN/A
6:20 pm55 °FPassing clouds.9 mph82%29.65 "HgN/A
5:50 pm57 °FSprinkles. Passing clouds.8 mph72%29.62 "HgN/A
5:20 pm57 °FScattered clouds.8 mph72%29.62 "HgN/A
4:50 pm57 °FPassing clouds.9 mph72%29.65 "HgN/A
3:20 pm59 °FScattered clouds.12 mph77%29.65 "HgN/A
2:50 pm59 °FScattered clouds.10 mph77%29.65 "HgN/A
2:21 pm59 °FScattered clouds.12 mph82%29.65 "HgN/A
1:50 pm57 °FPassing clouds.10 mph88%29.65 "HgN/A
1:21 pm55 °FLight rain. Partly sunny.8 mph94%29.65 "Hg6 mi
12:50 pm54 °FLight rain. Partly sunny.7 mph94%29.68 "HgN/A
12:21 pm54 °FLight rain. More clouds than sun.7 mph94%29.68 "HgN/A
12:05 pm54 °FRain. More clouds than sun.12 mph88%29.71 "Hg4 mi
11:50 am54 °FLight rain. Overcast.10 mph88%29.71 "HgN/A
11:20 am55 °FLight rain. Partly sunny.9 mph82%29.71 "HgN/A
10:50 am55 °FPartly sunny.8 mph77%29.71 "HgN/A
10:20 am55 °FPartly sunny.6 mph82%29.71 "HgN/A
9:50 am54 °FSunny.6 mph82%29.71 "Hg10 mi
9:20 am52 °FSunny.5 mph94%29.71 "Hg10 mi
8:50 am48 °FSunny.2 mph100%29.74 "Hg10 mi
8:20 am46 °FSunny.1 mph100%29.74 "Hg10 mi
7:50 am46 °FSunny.2 mph100%29.71 "Hg10 mi
7:21 am46 °FClear.3 mph100%29.71 "Hg10 mi
6:50 am45 °FClear.3 mph100%29.71 "Hg10 mi
5:50 am43 °FPassing clouds.2 mph100%29.71 "HgN/A
Weather by CustomWeather, © 2019

See weather overview